Vorticity
nan nan nan nan nan nan nan nan nan nan nan nan nan nan nan nan nan nan nan nan nan nan nan nan nan nan nan nan nan nan nan nan nan nan nan nan nan nan nan nan nan nan nan nan nan nan nan nan nan nan nan nan nan nan nan nan nan nan nan nan nan nan nan nan nan nan nan nan nan nan nan nan nan nan nan nan nan nan nan nan nan nan nan nan nan nan nan nan nan nan nan nan nan nan nan nan nan nan nan nan nan nan nan
nan 5 5 6 5 5 5 5 6 5 4 4 5 6 7 8 8 6 5 3 0 -1 -1 0 2 4 5 6 7 6 6 6 6 5 5 5 5 5 6 6 7 8 9 9 9 8 8 7 7 7 6 6 7 8 9 9 10 10 9 9 8 8 8 7 7 6 6 6 6 6 8 11 13 12 9 8 8 9 9 8 8 7 6 6 8 11 12 11 7 2 3 5 8 9 7 4 1 2 6 9 11 10 nan
nan 5 5 5 5 6 7 8 8 8 8 7 7 7 8 8 9 9 8 7 4 1 -0 -1 0 2 3 4 5 5 5 4 4 5 5 6 6 6 5 5 6 8 9 9 9 8 7 7 7 6 6 6 6 7 9 9 10 10 9 9 9 8 7 7 7 6 6 6 6 6 6 6 7 7 5 3 3 5 7 8 8 7 7 6 6 8 10 12 11 5 3 2 5 6 4 2 1 3 6 8 9 10 nan
nan 6 6 6 5 6 7 8 9 10 11 11 11 10 10 10 10 10 9 9 8 6 4 2 1 0 0 1 3 4 3 0 -2 -2 1 6 9 8 7 5 6 7 8 9 9 8 7 6 6 6 6 6 6 7 8 9 9 10 10 9 9 8 8 7 6 6 6 6 7 6 5 3 2 1 -1 -3 -4 -3 2 6 8 7 7 7 6 6 7 9 10 8 5 3 1 -1 -1 2 6 7 7 6 7 9 nan
nan 6 7 7 7 7 7 8 8 8 9 10 11 11 10 10 10 9 9 9 10 9 9 8 6 5 4 4 4 6 5 3 -1 -5 -5 -0 6 11 10 6 5 6 6 8 8 8 8 7 7 6 6 6 7 7 7 8 9 10 10 10 10 9 8 7 6 6 6 7 8 7 6 4 3 2 2 1 -0 -3 -1 3 8 7 7 7 7 6 6 6 7 8 7 5 0 -2 1 6 9 9 7 6 6 7 nan
nan 7 7 8 8 8 8 8 7 6 6 6 7 7 6 6 8 9 7 7 8 9 11 13 14 13 12 12 12 13 12 11 9 5 1 -3 -1 6 8 7 6 5 5 5 6 8 9 8 7 6 6 7 7 7 7 7 8 9 10 10 10 9 7 6 5 5 6 7 8 9 9 8 8 9 10 12 13 9 3 3 8 9 9 8 7 6 6 5 6 7 7 5 3 2 7 9 9 8 6 6 6 6 nan
nan 12 11 9 8 8 7 8 7 6 5 5 5 4 4 4 6 8 6 6 7 8 11 14 16 16 17 17 18 18 17 16 16 15 12 6 -0 -2 0 3 6 6 6 5 5 6 8 6 6 7 6 7 7 7 7 7 8 8 9 9 8 7 6 5 4 4 5 5 6 6 8 10 13 15 17 19 20 17 11 5 8 13 14 13 10 7 6 5 5 5 5 4 5 7 9 10 8 6 6 6 7 6 nan
nan 13 13 12 10 8 7 7 8 7 5 5 5 3 3 5 6 6 7 8 8 8 8 9 12 14 16 16 18 17 17 17 18 18 18 16 11 3 -1 -1 3 7 8 8 8 6 6 5 7 8 6 5 6 6 7 7 7 8 8 7 7 6 5 4 4 4 4 3 1 -2 -1 3 8 13 17 19 20 18 14 8 7 12 14 16 16 14 10 6 4 4 4 4 6 10 10 9 7 6 6 7 8 6 nan
nan 10 12 12 12 9 7 7 8 7 5 4 5 3 2 3 4 5 7 8 9 9 6 7 9 13 15 14 13 13 13 14 16 16 16 18 17 14 9 4 4 6 7 9 9 9 7 5 6 7 6 5 5 6 6 6 6 6 6 6 5 5 4 4 4 4 4 2 -0 -3 -5 -4 0 3 7 12 13 12 10 8 6 9 10 11 14 17 16 11 6 4 6 7 7 9 9 8 7 7 6 7 8 8 nan
nan 8 11 12 11 9 7 7 8 7 5 4 4 3 2 2 3 5 5 5 7 8 7 8 10 13 14 11 7 9 10 11 10 10 11 14 16 19 19 15 10 6 5 5 7 12 11 8 5 6 7 9 8 7 6 6 6 6 6 5 4 4 4 4 6 6 5 5 4 4 3 2 0 -2 -2 1 1 2 3 5 7 8 8 7 9 12 14 13 9 7 8 8 8 9 8 7 6 7 7 7 8 9 nan
nan 8 10 11 12 11 9 8 8 7 6 6 6 5 4 4 5 6 5 5 6 7 8 8 8 9 8 8 6 6 10 11 12 10 9 10 14 16 17 17 15 9 5 3 4 7 9 9 7 7 8 10 11 10 10 8 7 6 7 6 7 6 3 4 7 9 8 8 8 11 12 11 6 1 -2 -2 -0 -1 -1 2 6 8 8 7 7 7 9 9 9 8 8 8 9 8 7 6 7 7 7 8 8 8 nan
nan 7 9 12 14 14 12 10 10 9 8 8 9 9 9 9 9 8 7 7 8 8 8 7 6 4 3 4 5 3 6 9 13 15 14 14 15 12 11 11 11 10 8 6 4 2 3 5 7 8 8 8 9 9 10 9 8 8 8 7 10 9 2 3 6 9 9 10 9 10 13 14 11 6 3 4 8 8 5 3 5 7 7 7 7 7 7 7 7 7 7 7 8 6 5 6 7 7 8 9 8 8 nan
nan 7 7 10 13 15 15 14 14 13 12 12 12 12 14 14 12 10 9 9 9 10 10 10 9 6 3 3 3 3 2 2 5 12 16 17 17 14 12 11 10 11 10 10 8 5 3 2 3 6 7 8 8 8 8 8 8 8 8 8 11 10 3 3 5 6 7 7 7 6 9 11 10 7 7 8 12 14 11 6 5 5 5 5 6 6 6 6 6 6 6 6 7 6 6 7 8 8 8 9 8 8 nan
nan 8 7 7 9 12 14 15 17 18 17 17 16 15 15 14 14 12 11 10 9 9 10 11 12 11 9 9 9 10 8 4 1 3 9 12 14 17 15 13 11 11 10 10 10 10 9 7 3 3 4 6 7 7 7 7 7 8 9 9 10 9 5 4 5 5 5 5 4 4 6 7 8 7 6 7 10 11 10 8 7 6 5 3 4 6 6 6 6 6 5 5 6 7 6 7 7 7 8 8 8 8 nan
nan 8 9 6 7 9 10 12 15 19 19 18 16 14 13 11 11 12 12 11 11 10 9 9 10 13 13 12 11 14 15 13 8 4 6 7 10 11 9 7 6 5 6 6 7 9 11 11 9 5 4 4 5 6 5 5 6 7 7 8 8 8 7 6 6 6 6 5 4 3 4 5 6 6 5 6 8 8 8 8 7 8 7 4 4 6 6 5 6 6 4 4 5 6 5 6 7 7 8 8 8 8 nan
nan 9 10 8 6 7 8 10 11 14 15 14 10 8 7 6 6 8 9 9 10 10 8 7 8 11 13 12 10 11 11 12 9 8 7 7 7 6 4 2 2 3 4 6 7 6 7 9 11 10 8 7 6 6 5 4 4 4 5 5 5 6 7 7 7 7 7 7 7 6 5 4 3 4 4 6 7 7 6 7 6 7 9 7 6 7 7 5 6 6 5 4 4 4 5 6 7 7 7 7 8 8 nan
nan 9 10 8 6 7 8 8 9 9 10 9 7 3 1 0 0 1 2 4 6 6 5 4 6 8 9 10 9 6 4 5 5 4 2 2 3 4 5 4 4 5 6 6 8 7 6 5 8 9 9 9 7 6 6 6 6 5 5 5 5 5 6 6 7 6 6 7 7 6 4 3 3 5 6 6 7 8 7 6 5 7 9 9 8 8 8 7 7 6 5 5 4 3 4 6 7 7 7 7 7 7 nan
nan 8 8 7 5 6 8 8 9 8 7 8 9 6 4 3 1 0 -0 1 2 1 0 1 5 5 4 4 4 3 4 5 5 1 0 -0 1 4 5 5 5 4 5 5 6 6 6 6 8 8 8 8 6 5 6 6 7 9 9 8 6 3 2 1 1 2 3 3 4 3 3 3 4 6 7 8 7 8 9 8 6 7 7 9 9 8 9 9 9 7 6 6 6 4 5 5 6 7 8 7 6 6 nan
nan 7 7 5 4 5 6 7 8 8 7 7 9 12 10 10 10 9 7 6 3 -1 -3 -1 4 4 2 2 1 4 7 9 7 6 8 8 8 5 4 4 4 5 5 5 4 4 4 5 7 9 10 12 12 10 9 6 6 8 8 4 -0 -2 -2 -2 -1 0 0 1 2 5 6 7 7 6 7 9 8 7 8 8 7 7 8 8 7 7 8 9 9 8 7 6 7 6 6 6 6 7 7 7 7 6 nan
nan 7 7 7 6 5 5 7 7 9 8 8 7 9 10 11 12 11 10 9 7 6 5 7 8 6 5 5 6 9 8 8 8 10 12 13 13 11 9 7 9 10 9 7 5 4 4 5 8 9 10 12 14 14 15 14 12 10 10 8 6 7 9 12 13 11 7 3 3 7 10 11 10 9 7 7 8 7 7 7 7 7 8 9 8 7 8 9 9 8 8 7 7 8 8 9 9 8 7 6 7 7 nan
nan 6 7 8 9 10 10 10 8 8 8 8 8 7 9 10 10 9 8 8 7 9 11 15 13 11 9 8 9 9 7 6 6 10 12 11 12 17 20 21 18 15 15 13 12 12 12 11 11 10 9 9 8 9 10 10 11 11 12 14 19 19 18 18 20 20 17 13 10 10 12 13 14 13 10 9 9 9 9 9 9 8 8 9 9 9 8 9 8 8 8 8 7 8 8 9 11 10 8 6 6 8 nan
nan 6 7 9 10 9 10 14 13 9 8 7 8 8 10 11 11 11 10 9 7 8 10 12 11 9 8 8 8 7 7 8 9 10 10 9 12 20 23 23 17 14 14 15 15 14 13 11 8 8 9 10 9 9 8 8 8 7 8 9 10 9 6 5 6 11 14 16 15 12 11 11 13 14 13 10 10 11 11 11 12 10 8 8 9 9 9 10 9 8 7 7 8 7 8 8 10 10 9 7 7 7 nan
nan 7 7 9 10 10 11 13 14 12 11 7 7 10 9 9 9 10 10 10 10 9 9 9 9 9 9 9 9 8 9 10 11 9 8 8 13 18 19 16 12 11 11 10 9 9 8 7 6 7 8 9 10 11 12 13 13 13 13 12 9 7 5 3 -0 -0 4 9 12 9 7 5 5 8 9 9 8 9 11 12 12 12 9 9 9 9 10 10 11 10 8 7 8 7 7 7 8 9 10 8 9 8 nan
nan 7 6 7 9 10 10 11 13 12 11 8 7 9 8 7 7 8 9 10 10 9 10 11 13 13 13 11 11 11 11 10 8 5 4 5 10 14 14 11 12 13 12 9 7 8 8 7 8 10 10 9 9 10 9 9 10 13 13 13 11 10 10 9 5 1 0 2 4 6 6 5 3 5 7 9 8 6 7 9 11 12 12 11 10 9 10 11 12 10 10 9 9 7 7 7 8 9 9 9 9 8 nan
nan 6 6 6 8 10 10 11 10 10 10 8 7 8 6 5 6 8 8 8 8 8 9 11 13 13 13 13 11 11 10 9 7 4 3 2 6 9 9 9 12 15 14 11 9 8 8 8 10 12 12 11 11 11 9 8 7 7 6 5 5 6 8 10 10 8 6 4 5 8 10 12 9 8 8 9 7 5 5 6 9 12 13 13 11 10 10 11 11 10 10 10 10 9 8 8 8 7 8 9 9 9 nan
nan 5 5 5 7 9 9 9 9 9 10 10 8 7 6 6 6 8 8 7 7 7 8 10 10 9 10 10 10 10 9 8 6 5 4 2 4 7 8 10 12 14 12 11 10 9 9 10 12 12 12 12 13 12 11 9 7 5 4 3 3 4 6 9 10 10 11 12 12 13 14 15 15 11 8 7 7 6 5 5 6 8 10 10 10 10 10 11 11 11 10 9 8 9 10 10 8 7 7 8 10 9 nan
nan 6 6 4 6 8 7 7 8 9 9 10 10 8 7 7 7 7 8 7 6 6 8 10 9 8 8 8 8 9 8 8 7 6 5 3 4 7 8 10 11 12 11 10 11 11 10 10 11 9 9 11 12 12 11 10 8 7 6 5 3 2 4 6 8 9 10 12 13 12 12 12 15 14 11 8 6 7 7 6 5 5 5 6 8 10 10 11 12 12 11 9 7 8 9 10 9 8 7 8 8 8 nan
nan 8 7 6 6 7 7 6 7 8 8 9 10 8 7 8 8 7 7 7 7 6 7 9 9 9 8 8 8 9 8 8 7 7 6 6 4 5 8 10 10 11 11 10 11 13 12 11 9 8 8 8 10 10 10 10 10 9 8 8 7 5 5 6 7 8 8 8 8 7 8 8 10 12 11 9 6 6 7 7 6 5 5 5 7 8 9 9 11 12 11 9 7 7 7 9 9 9 8 8 7 8 nan
nan 9 8 7 6 7 7 6 6 7 6 6 7 7 7 8 8 7 7 7 7 7 7 8 10 9 9 8 8 8 9 9 7 7 7 7 5 4 7 9 9 9 10 9 10 13 15 12 9 9 8 7 7 8 9 11 11 10 10 10 10 8 8 7 7 7 7 7 7 6 6 6 5 6 7 7 5 4 4 5 7 7 6 6 7 6 6 6 7 9 10 9 8 7 7 8 8 9 9 9 8 8 nan
nan 8 8 7 7 7 7 7 7 7 6 6 5 5 5 7 7 7 6 6 7 7 7 8 9 9 9 8 8 8 8 9 8 7 7 7 6 5 6 8 8 8 9 9 9 12 16 14 10 9 9 8 7 7 9 10 11 12 13 13 12 11 10 10 9 8 8 7 7 7 6 5 3 3 4 6 6 6 5 6 8 8 7 7 7 5 3 3 3 5 7 8 8 7 6 7 8 9 10 9 9 8 nan
nan 9 8 7 7 7 7 7 8 8 7 7 6 5 5 6 7 7 6 6 6 7 7 8 8 8 8 8 8 8 8 9 9 8 7 6 6 5 6 7 7 7 8 8 8 10 14 15 11 9 10 10 8 7 8 7 9 13 17 18 15 12 11 11 10 9 9 8 8 7 7 7 6 5 4 6 8 10 10 9 8 8 7 7 7 5 4 4 3 4 5 7 9 8 7 6 7 9 10 10 9 10 nan
nan 9 8 8 8 8 8 7 8 8 8 8 8 8 7 7 7 7 7 6 6 7 7 7 7 7 7 8 8 7 7 8 8 8 7 6 6 5 5 8 8 7 8 8 8 10 13 14 11 8 9 10 9 8 7 6 6 11 16 18 17 16 14 14 12 11 10 10 9 9 9 10 11 10 7 6 7 8 9 9 8 6 6 6 7 6 6 7 7 6 5 6 8 9 8 7 7 8 8 8 9 10 nan
nan 8 8 9 9 8 8 8 8 8 9 9 9 8 8 7 6 6 6 6 6 7 7 7 7 6 6 6 7 7 7 7 7 8 8 7 5 5 6 8 8 7 8 8 8 9 12 14 12 8 9 10 9 8 7 6 5 8 12 14 15 16 16 16 16 14 13 13 13 12 12 12 13 13 11 8 7 6 6 6 7 6 6 6 7 8 9 10 10 8 7 7 8 9 8 7 7 8 8 8 8 8 nan
nan 7 7 8 11 10 9 9 8 9 9 9 8 8 8 7 6 6 6 6 6 6 6 7 6 6 6 6 6 7 7 7 7 7 7 7 5 4 6 8 7 6 7 8 7 8 11 14 11 8 9 10 9 8 8 6 6 8 9 10 11 11 13 14 16 16 16 17 18 17 15 14 13 14 13 11 8 7 7 6 6 7 8 8 8 8 10 11 10 9 9 8 8 8 9 8 6 6 8 8 7 7 nan
nan 8 6 6 9 11 9 9 9 9 9 9 9 8 8 8 8 7 7 7 6 5 6 6 6 6 6 7 7 7 7 7 7 7 6 6 5 5 6 7 6 5 6 7 7 8 11 12 11 8 9 10 9 8 8 6 8 11 10 9 8 8 8 9 10 11 13 15 18 19 18 16 15 15 14 13 9 7 7 8 8 9 10 11 10 9 9 10 8 7 9 9 8 8 9 9 6 5 6 7 7 7 nan
nan 8 7 5 6 9 8 8 9 9 9 9 10 9 9 9 8 8 8 8 8 7 6 6 6 7 7 7 8 8 7 7 7 7 6 5 5 6 6 7 6 5 5 6 7 8 10 11 10 8 8 9 7 7 8 7 9 12 12 9 7 7 7 6 6 7 7 8 10 13 14 14 16 17 17 16 14 10 8 9 9 10 11 11 10 9 9 9 7 6 8 9 8 8 8 9 9 6 5 5 6 6 nan
nan 9 8 7 5 7 7 8 9 9 9 9 9 9 9 9 8 8 8 9 9 8 7 6 7 7 7 7 8 7 7 7 7 6 6 6 6 6 6 7 6 5 6 6 6 8 9 10 10 9 9 9 7 6 8 8 9 12 13 10 7 7 6 6 6 7 5 5 6 7 7 8 9 13 17 19 18 16 13 11 11 10 10 10 9 8 8 9 7 6 8 9 9 8 8 9 9 8 6 4 4 6 nan
nan 8 8 8 6 7 8 9 10 10 9 8 9 9 9 9 8 7 7 8 9 8 7 7 8 7 7 7 7 7 7 7 7 7 7 7 6 6 6 6 6 6 6 6 6 7 8 9 9 9 9 9 7 6 8 9 9 11 13 11 8 7 7 5 6 7 7 7 7 8 6 6 4 5 10 14 18 19 16 13 11 10 11 11 9 8 8 9 9 8 8 10 11 11 11 11 8 8 8 7 6 5 nan
nan 7 7 7 6 6 8 9 9 9 8 8 8 9 9 8 8 7 7 8 8 8 8 9 9 9 9 7 7 7 7 7 7 7 7 7 7 6 6 6 6 6 6 6 6 7 8 7 7 8 8 9 8 6 7 8 8 9 11 12 10 8 7 5 5 6 7 7 8 10 10 10 7 4 3 6 11 14 14 13 11 11 13 13 10 8 9 9 10 10 11 12 13 14 14 15 12 8 9 10 10 7 nan
nan 7 6 5 5 7 8 9 8 8 7 7 8 8 8 8 8 8 8 8 7 8 8 9 8 9 9 9 8 8 8 8 7 8 8 8 7 7 6 6 7 7 6 7 6 7 7 7 7 7 7 7 8 7 7 7 7 7 9 10 10 9 8 6 5 6 7 6 6 10 13 13 12 8 5 3 6 8 8 7 9 12 14 14 13 10 9 8 8 10 11 12 13 14 15 16 15 10 9 9 11 11 nan
nan 7 6 5 6 7 8 8 8 7 7 7 8 8 8 8 8 8 7 7 7 8 8 9 8 8 8 8 8 7 7 7 8 8 8 8 7 7 7 7 7 6 6 6 7 7 7 7 7 7 7 7 7 7 7 7 7 7 9 8 8 7 8 8 6 5 8 9 6 6 11 13 14 11 9 6 6 7 6 2 4 9 14 18 16 11 10 8 7 6 8 10 12 13 14 15 16 14 11 9 7 9 nan
nan 8 7 7 8 8 8 8 8 7 7 8 8 8 8 8 9 9 8 8 8 8 8 8 8 8 8 8 7 7 7 7 8 8 8 8 7 7 7 7 7 6 6 6 7 7 7 7 7 7 7 7 7 7 6 7 7 7 8 7 8 8 7 7 5 5 8 9 6 5 7 10 12 12 10 9 8 9 8 5 3 5 9 16 16 12 13 13 12 8 7 8 10 10 11 12 13 14 14 14 10 7 nan
nan 9 9 8 9 8 8 8 7 7 7 8 8 7 6 7 9 9 8 8 9 9 7 7 8 9 10 9 8 8 8 8 8 8 8 9 9 8 8 8 8 7 7 7 7 7 7 7 7 7 7 7 7 6 6 6 7 7 7 8 8 8 7 7 6 6 7 7 7 7 6 7 8 9 10 11 9 9 10 9 7 7 6 8 11 13 17 19 17 12 9 8 7 8 8 10 10 12 13 16 18 15 nan
nan 9 9 9 8 8 9 8 8 8 8 7 7 6 7 7 9 10 9 9 10 9 9 8 7 7 8 9 10 10 10 9 8 8 8 9 10 10 9 8 9 8 8 7 7 7 7 7 7 7 7 7 7 6 6 6 6 6 6 7 8 8 7 7 6 7 7 7 7 7 7 7 7 7 9 11 10 9 10 10 9 9 10 10 8 10 14 18 15 11 9 9 9 9 8 9 10 11 10 11 16 20 nan
nan 8 9 8 8 8 9 9 9 8 8 8 7 8 9 9 9 10 10 9 10 10 10 10 9 8 8 9 10 10 9 9 9 8 8 8 10 10 10 10 10 9 8 7 7 7 7 7 7 8 8 7 6 6 7 7 7 7 6 7 7 7 7 7 6 6 8 7 7 6 7 8 9 7 7 10 11 8 8 9 8 7 10 11 11 11 11 13 12 11 11 11 12 11 10 8 9 10 9 8 10 15 nan
nan 8 8 8 8 8 8 8 9 9 9 8 8 9 10 10 9 9 9 8 8 9 9 10 10 9 9 9 9 9 9 8 9 9 9 9 10 10 10 10 9 9 8 8 8 8 8 8 7 7 7 7 7 7 7 7 7 7 7 7 7 7 7 7 7 7 7 7 6 6 6 8 10 8 7 9 10 8 7 8 8 6 6 8 11 12 12 11 11 12 12 12 11 9 9 8 7 8 10 10 10 10 nan
nan 8 8 8 8 8 8 9 9 10 9 8 8 9 10 10 8 8 8 8 8 8 9 9 9 8 8 8 8 8 8 8 8 9 9 10 10 9 9 10 10 9 8 8 8 8 8 8 7 7 8 8 8 8 7 7 7 7 8 7 8 8 7 7 7 7 7 6 6 6 7 8 9 8 7 7 9 9 8 8 8 6 4 5 10 12 11 9 10 9 9 8 7 6 5 5 5 7 10 9 9 11 nan
nan 9 9 9 9 8 9 10 10 10 10 9 8 8 9 9 9 9 9 9 8 8 8 8 8 8 8 8 7 8 8 8 8 9 9 9 9 8 9 11 11 9 8 8 9 9 8 8 8 8 8 9 9 8 8 7 7 7 8 7 8 8 8 8 8 7 7 7 6 6 6 6 8 9 8 7 8 9 10 8 7 7 7 6 9 12 9 7 7 10 9 5 3 3 2 2 6 9 10 6 6 8 nan
nan 9 9 9 9 8 8 9 11 10 10 9 8 7 7 8 9 10 10 9 8 8 8 8 7 8 9 8 8 8 8 8 8 8 8 8 8 8 9 10 11 10 8 7 8 9 9 9 9 8 8 9 9 8 8 8 7 7 8 8 8 8 7 8 9 8 8 7 7 6 6 6 8 8 8 7 7 8 10 8 6 8 9 9 11 12 9 5 6 10 10 9 6 3 3 3 5 7 7 6 6 6 nan
nan 9 9 9 9 8 7 8 10 11 10 9 8 7 8 8 9 9 9 9 8 8 8 8 7 7 8 8 8 8 8 8 8 8 7 7 7 9 9 9 10 10 9 8 8 9 9 9 9 9 9 8 9 9 8 8 8 8 8 8 8 8 7 8 9 8 8 8 8 7 7 7 7 7 7 7 7 8 9 8 8 8 9 9 11 11 8 5 6 9 9 9 9 9 8 6 5 4 3 5 7 8 nan
nan 9 9 9 8 9 8 8 10 10 9 8 8 8 8 8 9 9 9 9 9 7 7 6 6 7 8 8 8 8 8 8 8 8 8 8 8 9 8 8 8 10 10 9 9 8 9 9 10 9 9 8 8 8 8 8 8 9 9 9 9 9 8 9 9 9 9 9 9 8 8 8 7 7 7 7 7 7 8 8 8 8 8 8 9 8 7 6 8 11 10 9 10 10 10 10 9 7 5 6 10 13 nan
nan 9 8 8 8 9 10 9 9 10 9 8 9 9 8 8 9 9 9 9 9 8 7 7 7 8 8 8 8 9 8 9 9 9 9 8 8 8 8 8 8 9 10 10 10 9 9 9 9 9 9 8 7 8 9 8 8 9 9 9 9 9 8 8 9 10 10 10 9 8 8 8 8 8 7 7 7 7 7 8 8 8 8 8 8 8 8 8 10 10 10 10 10 9 9 10 10 9 9 11 14 15 nan
nan 8 8 7 8 10 11 11 10 10 9 8 9 9 9 9 9 8 8 9 9 8 7 7 8 9 9 9 9 9 9 10 10 9 8 7 8 9 9 9 9 9 9 10 10 10 9 9 9 9 9 9 8 8 9 9 9 9 9 9 9 8 8 9 9 10 10 9 9 9 8 7 7 7 7 7 7 6 6 7 8 8 8 8 8 8 8 8 9 10 10 10 10 10 10 10 10 10 10 11 13 12 nan
nan 8 8 8 8 10 11 10 10 9 9 9 9 9 9 10 9 8 8 9 9 8 7 7 8 9 9 9 10 9 9 10 10 8 8 8 9 9 9 9 9 9 9 9 9 10 10 9 8 9 9 9 9 8 8 9 9 9 9 10 9 7 8 10 10 8 8 8 9 9 9 7 6 7 7 7 7 6 7 7 7 7 7 7 7 8 7 7 8 9 10 9 9 10 10 11 11 9 9 9 10 11 nan
nan 9 9 9 8 8 9 9 10 10 9 9 9 9 9 9 9 8 8 9 9 8 7 7 8 8 9 10 9 8 8 9 9 8 8 8 9 9 9 9 9 9 9 9 9 9 10 9 9 9 9 9 9 8 8 8 8 8 9 11 10 8 8 10 9 7 7 8 9 9 8 8 7 7 8 8 7 6 7 7 7 8 7 7 7 8 8 8 8 9 9 8 8 8 8 9 8 6 7 8 10 10 nan
nan 10 9 9 9 8 9 10 11 11 10 9 9 9 9 9 8 8 9 10 10 8 7 7 8 8 8 8 8 8 8 8 8 8 8 8 9 9 9 10 10 9 9 10 10 9 9 9 10 10 9 9 9 9 8 8 7 7 9 11 11 9 8 8 8 8 7 8 9 9 8 8 8 8 8 9 8 7 7 8 8 8 8 8 7 8 8 8 9 9 8 8 8 7 7 7 6 7 7 8 9 9 nan
nan 9 9 9 9 9 10 11 11 10 9 9 9 9 9 9 9 9 9 10 9 8 8 8 9 8 7 7 7 8 8 8 8 9 9 9 9 9 10 9 9 9 10 10 10 10 9 9 10 10 9 9 9 9 9 9 8 7 9 10 11 9 8 8 8 8 9 8 8 8 8 8 8 7 7 9 9 8 8 8 8 8 8 8 8 8 8 8 9 8 8 8 8 7 7 7 7 7 8 8 8 9 nan
nan 9 8 8 8 9 9 9 8 8 8 8 8 9 10 10 10 10 10 9 8 8 9 9 9 7 7 7 8 8 8 8 8 8 9 9 9 9 8 8 8 9 10 10 10 9 9 8 8 8 8 9 9 8 8 8 8 8 8 10 10 9 8 8 9 10 9 7 6 7 7 9 9 7 6 7 9 8 8 8 9 9 9 9 8 7 7 8 8 8 8 8 8 8 8 8 7 7 7 7 8 9 nan
nan 8 8 8 8 9 8 7 7 8 8 8 8 10 10 10 10 11 10 9 8 9 10 9 8 7 8 8 7 7 8 8 8 8 8 8 8 8 8 8 8 9 9 9 8 8 7 7 8 7 8 8 8 7 6 6 6 6 6 7 8 8 8 8 9 11 10 5 4 6 7 10 10 8 7 7 6 6 8 9 8 8 10 10 8 7 6 6 7 8 8 8 8 8 8 8 7 7 7 7 7 8 nan
nan 9 8 8 9 8 7 6 7 8 8 8 8 10 10 10 10 11 10 9 8 9 10 9 8 8 8 8 7 7 8 8 8 8 8 8 8 8 8 8 9 9 8 8 8 7 7 8 9 10 9 7 6 5 5 5 5 5 4 4 6 8 9 9 8 10 10 7 3 3 7 10 9 8 9 7 4 7 10 11 9 8 9 9 8 8 7 6 7 8 8 8 8 8 8 8 8 7 7 7 7 7 nan
nan nan nan nan nan nan nan nan nan nan nan nan nan nan nan nan nan nan nan nan nan nan nan nan nan nan nan nan nan nan nan nan nan nan nan nan nan nan nan nan nan nan nan nan nan nan nan nan nan nan nan nan nan nan nan nan nan nan nan nan nan nan nan nan nan nan nan nan nan nan nan nan nan nan nan nan nan nan nan nan nan nan nan nan nan nan nan nan nan nan nan nan nan nan nan nan nan nan nan nan nan nan nan
CAPE
395 468 600 600 602 303 303 400 580 712 712 785 665 634 634 649 634 654 605 605 575 613 671 671 731 908 908 1032 1159 1317 1317 1489 1597 1584 1520 1520 1411 1263 1080 1080 1100 1162 1190 1190 1227 1350 1558 1558 1686 1610 1610 1457 1432 1568 1704 1704 1799 1809 1688 1688 1610 1453 1297 1297 1182 1031 1031 913 797 659 659 515 358 248 337 337 380 457 571 571 706 732 643 643 497 274 274 126 82 54 54 61 44 18 nan nan nan nan nan nan nan nan nan
103 124 271 271 312 218 218 154 239 602 602 821 802 702 702 630 558 531 488 488 463 447 485 485 564 685 685 814 958 1080 1080 1233 1331 1351 1287 1287 1184 1083 903 903 917 1094 1164 1164 1161 1242 1368 1368 1497 1426 1426 1207 1073 1089 1328 1328 1576 1709 1634 1634 1478 1363 1169 1169 1015 903 903 792 684 579 579 495 408 242 232 232 235 253 327 327 423 418 367 367 291 203 203 128 75 43 43 48 35 9 0 0 nan nan nan nan nan nan nan
nan nan 38 38 67 62 62 109 213 370 370 519 683 711 711 577 454 423 399 399 392 316 334 334 455 532 532 614 736 899 899 1027 1049 1023 948 948 891 800 737 737 777 982 1217 1217 1095 1137 1222 1222 1270 1244 1244 1071 767 537 797 797 1318 1566 1577 1577 1385 1270 1077 1077 923 812 812 706 605 536 536 452 366 261 192 192 164 185 178 178 199 194 143 143 93 91 91 83 63 39 39 20 19 2 2 2 nan nan nan nan nan nan nan
nan nan nan nan nan 6 6 57 115 340 340 401 401 501 501 557 568 436 378 378 388 348 310 310 326 366 366 399 476 666 666 817 725 655 669 669 649 602 561 561 651 1075 1192 1192 1194 1196 1198 1198 1165 1177 1177 1007 577 368 489 489 1069 1464 1476 1476 1328 1139 987 987 871 723 723 621 524 489 489 409 295 188 134 134 114 116 110 110 99 74 68 68 46 33 33 35 28 21 21 9 6 3 nan nan nan nan nan nan nan nan nan
nan nan nan nan nan nan nan 8 56 165 165 355 386 514 514 889 845 651 440 440 357 343 379 379 337 283 283 239 342 467 467 492 402 299 391 391 484 459 451 451 584 823 974 974 1349 1429 1174 1174 1101 1003 1003 771 410 293 461 461 973 1362 1454 1454 1268 1085 900 900 785 671 671 567 498 396 396 294 188 103 67 67 58 17 13 13 30 24 24 24 18 10 10 6 1 nan nan 0 14 7 nan nan nan nan nan nan nan nan nan
nan nan nan nan nan nan nan 4 72 60 60 178 334 485 485 700 856 1024 795 795 479 368 385 385 337 273 273 234 281 321 321 325 268 137 188 188 406 313 391 391 579 550 552 552 662 817 959 959 1078 809 809 496 289 320 495 495 839 1217 1348 1348 1204 1024 844 844 694 585 585 514 408 304 304 205 80 46 30 30 17 nan nan nan nan 1 4 4 2 0 0 nan nan nan nan nan nan nan nan nan nan nan nan nan nan nan nan
1 nan nan nan nan nan nan nan 150 80 80 69 288 336 336 365 701 1023 1099 1099 857 542 451 451 286 269 269 245 287 336 336 361 200 111 93 93 162 235 404 404 577 591 414 414 387 360 913 913 716 660 660 482 345 382 504 504 743 1074 1241 1241 1175 992 740 740 560 527 527 425 320 189 189 66 13 4 nan nan nan nan nan nan nan nan 1 1 nan nan nan nan nan nan nan nan nan nan nan nan nan nan nan nan nan nan nan
nan nan nan nan nan nan nan nan 127 186 186 58 65 90 90 113 411 633 824 824 1001 818 632 632 506 354 354 339 405 399 399 308 147 46 41 41 5 104 297 297 437 430 373 373 330 321 624 624 374 615 615 500 444 451 458 458 624 976 1210 1210 1142 920 670 670 456 390 390 295 202 46 46 4 nan nan nan nan nan nan nan nan nan nan nan nan nan nan nan nan nan nan nan nan nan nan nan nan nan nan nan nan nan nan nan
nan nan 10 10 6 nan nan 1 42 279 279 39 nan nan nan 35 254 604 822 822 1076 891 656 656 632 467 467 392 497 403 403 338 222 76 21 21 9 8 91 91 206 294 224 224 389 256 368 368 306 464 464 488 431 409 418 418 577 883 1106 1106 997 781 570 570 397 297 297 204 86 17 17 nan nan nan nan nan nan nan nan nan nan nan nan nan nan nan nan nan nan nan nan nan nan nan nan nan nan nan nan nan nan nan nan
nan nan nan nan 113 10 10 nan nan 1 1 12 nan 21 21 94 150 349 582 582 754 1207 1481 1481 1286 983 983 553 509 490 490 439 337 202 195 195 159 112 90 90 65 179 440 440 524 348 358 358 352 362 362 298 302 355 374 374 493 688 745 745 637 506 334 334 242 107 107 36 8 1 1 nan nan nan nan nan nan nan nan nan nan nan nan nan nan nan nan nan nan nan nan nan nan nan nan nan nan nan nan nan nan nan nan
nan nan nan nan 7 nan nan nan nan 3 3 0 nan 57 57 264 216 357 561 561 757 1301 1626 1626 1223 973 973 596 405 497 497 284 167 98 124 124 229 296 262 262 213 165 280 280 487 569 407 407 500 238 238 107 114 223 304 304 416 486 573 573 499 399 92 92 13 41 41 25 5 nan nan nan nan nan nan nan nan nan nan nan nan nan nan nan nan nan nan nan nan nan nan nan nan nan nan nan nan nan nan nan nan nan nan
nan nan nan nan nan nan nan nan nan nan nan 5 81 261 261 373 354 424 575 575 917 1270 1330 1330 868 602 602 528 558 408 408 329 268 186 141 141 90 170 404 404 377 255 216 216 183 274 498 498 662 468 468 195 82 44 52 52 120 142 239 239 205 274 10 10 nan nan nan nan 0 nan nan nan nan nan nan nan nan nan nan nan nan nan nan nan nan nan nan nan nan nan nan nan nan nan nan nan nan nan nan nan nan nan nan
nan nan nan nan nan nan nan nan nan nan nan nan 217 705 705 442 230 259 367 367 657 1118 1247 1247 905 516 516 414 360 321 321 163 232 389 407 407 336 197 243 243 369 490 316 316 213 140 338 338 599 551 551 406 224 86 53 53 58 51 66 66 41 135 29 29 nan nan nan nan nan nan nan nan nan nan nan nan nan nan nan nan nan nan nan nan nan nan nan nan nan nan nan nan nan nan nan nan nan nan nan nan nan nan nan
nan nan nan nan nan nan nan nan nan nan nan nan 120 423 423 299 201 258 265 265 225 354 529 529 794 677 677 410 339 351 351 140 112 381 521 521 613 541 507 507 480 596 537 537 468 318 250 250 288 451 451 423 354 211 154 154 89 50 38 38 16 35 34 34 nan nan nan nan nan nan nan nan nan nan nan nan nan nan nan nan nan nan nan nan nan nan nan nan nan nan nan nan nan nan nan nan nan nan nan nan nan nan nan
nan nan nan nan nan nan nan nan nan nan nan 12 82 81 81 95 73 146 204 204 97 83 206 206 317 441 441 337 451 470 470 308 296 452 586 586 632 680 605 605 552 479 385 385 323 374 233 233 157 223 223 285 347 310 250 250 147 98 77 77 44 0 5 5 4 nan nan nan nan nan nan nan nan nan nan nan nan nan nan nan nan nan nan nan nan nan nan nan nan nan nan nan nan nan nan nan nan nan nan nan nan nan nan
nan nan nan nan nan nan nan nan nan nan nan nan nan nan nan nan 3 32 51 51 43 11 27 27 52 145 145 155 304 749 749 951 762 527 523 523 478 485 409 409 262 214 132 132 156 137 164 164 131 152 152 257 250 309 273 273 169 141 124 124 73 6 5 5 10 nan nan nan nan nan nan nan nan nan nan nan nan nan nan nan nan nan nan nan nan nan nan nan nan nan nan nan nan nan nan nan nan nan nan nan nan nan nan
nan nan nan nan nan nan nan nan nan nan nan nan nan nan nan nan nan nan nan nan nan 2 4 4 3 32 32 124 307 347 347 331 301 237 288 288 302 263 212 212 258 214 89 89 115 66 34 34 50 108 108 217 260 343 194 194 175 164 134 134 109 35 7 7 11 nan nan nan nan nan nan nan nan nan nan nan nan nan nan nan nan nan nan nan nan nan nan nan nan nan nan nan nan nan nan nan nan nan nan nan nan nan nan
nan nan nan nan nan nan nan nan nan nan nan nan nan nan nan nan nan nan nan nan nan nan 6 6 1 12 12 46 134 170 170 152 154 94 87 87 175 180 146 146 152 133 94 94 101 79 18 18 20 53 53 95 97 143 125 125 232 178 131 131 77 52 34 34 19 6 6 nan nan nan nan nan nan nan nan nan nan nan nan nan nan nan nan nan nan nan nan nan nan nan nan nan nan nan nan nan nan nan nan nan nan nan nan
nan nan nan nan nan nan nan nan nan nan nan nan nan nan nan nan nan nan nan nan nan nan nan nan 14 16 16 23 48 101 101 88 88 54 65 65 128 135 89 89 117 91 74 74 99 75 53 53 49 43 43 25 nan 1 22 22 106 146 175 175 175 38 22 22 19 0 0 13 6 13 13 0 nan nan nan nan nan nan nan nan nan nan nan nan nan nan nan nan nan nan nan nan nan nan nan nan nan nan nan nan nan nan nan
nan nan nan nan nan nan nan nan nan nan nan nan nan nan nan nan nan nan nan nan nan nan nan nan 10 7 7 13 11 62 62 104 92 101 113 113 126 87 72 72 81 86 83 83 86 86 71 71 45 23 23 13 9 7 14 14 46 76 58 58 32 32 36 36 24 11 11 12 7 8 8 6 nan nan nan nan nan nan nan nan nan nan nan nan nan nan nan nan nan nan nan nan nan nan nan nan nan nan nan nan nan nan nan
nan nan nan nan nan nan nan nan nan nan nan nan nan nan nan nan nan nan nan nan nan nan nan nan nan nan nan 2 23 73 73 126 126 166 178 178 165 120 31 31 40 68 129 129 105 88 66 66 64 38 38 25 28 38 68 68 86 124 95 95 55 47 59 59 73 76 76 32 12 3 3 1 nan nan nan nan nan nan nan nan nan nan nan nan nan nan nan nan nan nan nan nan nan nan nan nan nan nan nan nan nan nan nan
nan nan nan nan nan nan nan nan nan nan nan nan nan nan nan nan nan nan nan nan nan nan nan nan nan nan nan nan nan 19 19 88 156 274 236 236 145 133 78 78 85 141 176 176 148 105 63 63 75 85 85 88 90 61 49 49 55 75 84 84 63 83 49 49 41 74 74 39 7 0 0 nan 0 0 1 1 1 1 1 1 nan nan nan nan nan nan nan nan nan nan nan nan nan nan nan nan nan nan nan nan nan nan nan
nan nan nan nan nan nan nan nan nan nan nan nan nan nan nan nan nan nan nan nan nan nan nan nan nan nan nan nan nan 5 5 85 202 98 9 9 nan 5 15 15 24 66 120 120 138 104 72 72 107 109 109 127 147 143 114 114 73 63 50 50 41 23 9 9 8 17 17 32 10 nan nan nan nan 0 0 0 1 2 2 2 1 nan nan nan nan nan nan nan nan nan nan nan nan nan nan nan nan nan nan nan nan nan nan
nan nan nan nan nan nan nan nan nan nan nan nan nan nan nan nan nan nan nan nan nan nan nan nan nan nan nan nan nan nan nan 58 60 nan nan nan nan nan nan nan nan 2 18 18 29 46 64 64 113 138 138 134 149 195 228 228 221 167 97 97 50 29 13 13 6 1 1 7 17 12 12 nan 1 nan nan nan nan 0 1 1 1 nan 0 0 nan nan nan nan nan nan nan nan nan nan nan nan nan nan nan nan nan nan nan
nan nan nan nan nan nan nan nan nan nan nan nan nan nan nan nan nan nan nan nan nan nan nan nan nan nan nan nan nan nan nan nan nan nan nan nan nan nan nan nan nan nan nan nan nan nan 5 5 44 100 100 146 150 200 203 203 191 131 74 74 30 17 10 10 14 9 9 4 nan nan nan 1 nan 0 0 0 0 nan nan nan nan nan nan nan 0 nan nan nan nan nan nan nan nan nan nan nan nan nan nan nan nan nan nan
nan nan nan nan nan nan nan nan nan nan nan nan nan nan nan nan nan nan nan nan nan nan nan nan nan nan nan nan nan nan nan nan nan nan nan nan nan nan nan nan nan nan nan nan nan nan nan nan nan 43 43 115 143 170 202 202 137 72 23 23 6 8 10 10 3 3 3 3 0 0 0 0 0 2 nan nan 0 0 nan nan nan nan nan nan nan nan nan nan nan nan nan nan nan nan nan nan nan nan nan nan nan nan nan
nan nan nan nan nan nan nan nan nan nan nan nan nan nan nan nan nan nan nan nan nan nan nan nan nan nan nan nan nan nan nan nan nan nan nan nan nan nan nan nan nan nan nan nan nan nan nan nan nan 15 15 89 129 128 145 145 130 55 8 8 nan 3 3 3 nan nan nan nan 4 7 7 6 9 15 16 16 2 5 nan nan nan nan nan nan nan nan nan 0 nan nan nan nan nan nan nan nan nan nan nan nan nan nan nan
nan nan nan nan nan nan nan nan nan nan nan nan nan nan nan nan nan nan nan nan nan nan nan nan nan nan nan nan nan nan nan nan nan nan nan nan nan nan nan nan nan nan nan nan nan nan nan nan nan nan nan 20 75 89 88 88 108 75 10 10 nan nan nan nan nan nan nan nan 7 12 12 12 13 18 36 36 27 13 11 11 nan nan nan nan nan nan nan 0 3 nan nan nan nan nan nan nan nan nan nan nan nan nan nan
nan nan nan nan nan nan nan nan nan nan nan nan nan nan nan nan nan nan nan nan nan nan nan nan nan nan nan nan nan nan nan nan nan nan nan nan nan nan nan nan nan nan nan nan nan nan nan nan nan nan nan nan 4 21 31 31 80 92 44 44 18 1 nan nan nan 3 3 7 12 3 3 8 19 23 22 22 29 20 22 22 21 nan nan nan nan nan nan 0 1 2 2 nan nan nan nan nan nan nan nan nan nan nan nan
nan nan nan nan nan nan nan nan nan nan nan nan nan nan nan nan nan nan nan nan nan nan nan nan nan nan nan nan nan nan nan nan nan nan nan nan nan nan nan nan nan nan nan nan nan nan nan nan nan nan nan nan nan nan 4 4 14 21 34 34 69 75 61 61 37 41 41 36 26 4 4 nan 3 15 12 12 16 12 7 7 18 nan nan nan nan nan nan nan nan 1 1 1 nan nan nan nan nan nan nan nan nan nan nan
nan nan nan nan nan nan nan nan nan nan nan nan nan nan nan nan nan nan nan nan nan nan nan nan nan nan nan nan nan nan nan nan nan nan nan nan nan nan nan nan nan nan nan nan nan nan nan nan nan nan nan nan nan nan nan nan 0 6 18 18 74 127 132 132 119 99 99 81 50 17 17 6 1 0 11 11 4 nan 2 2 7 nan nan nan nan nan nan nan nan nan nan 0 nan nan nan nan nan nan nan nan nan nan nan
nan nan nan nan nan nan nan nan nan nan nan nan nan nan nan nan nan nan nan nan nan nan nan nan nan nan nan nan nan nan nan nan nan nan nan nan nan nan nan nan nan nan nan nan nan nan nan nan nan nan nan nan nan nan nan nan nan nan 14 14 61 89 112 112 120 125 125 111 69 62 62 42 23 11 0 0 2 nan nan nan nan nan nan nan 0 2 2 nan nan nan nan nan nan nan nan nan nan nan nan nan nan nan nan
nan nan nan nan nan nan nan nan nan nan nan nan nan nan nan nan nan nan nan nan nan nan nan nan nan nan nan nan nan nan nan nan nan nan nan nan nan nan nan nan nan nan nan nan nan nan nan nan nan nan nan nan nan nan nan nan nan nan nan nan nan 0 14 14 49 78 78 82 80 80 80 95 102 70 45 45 16 8 7 7 1 nan nan nan nan 6 6 11 nan nan nan nan nan 1 nan nan nan nan nan nan nan nan nan
nan nan nan nan nan nan nan nan nan nan nan nan nan nan nan nan nan nan nan nan nan nan nan nan nan nan nan nan nan nan nan nan nan nan nan nan nan nan nan nan nan nan nan nan nan nan nan nan nan nan nan nan nan nan nan nan nan nan nan nan nan nan nan nan nan 10 10 49 65 69 69 74 102 97 78 78 54 31 15 15 9 nan nan nan nan nan nan 5 0 nan nan nan nan 0 nan nan nan nan nan nan nan nan nan
nan nan nan nan nan nan nan nan nan nan nan nan nan nan nan nan nan nan nan nan nan nan nan nan nan nan nan nan nan nan nan nan nan nan nan nan nan nan nan nan nan nan nan nan nan nan nan nan nan nan nan nan nan nan nan nan nan nan nan nan nan nan nan nan nan nan nan nan 4 12 12 51 76 82 92 92 80 62 34 34 23 3 nan nan nan nan nan nan nan nan nan nan nan nan 4 4 nan nan nan nan nan nan nan
nan nan nan nan nan nan nan nan nan nan nan nan nan nan nan nan nan nan nan nan nan nan nan nan nan nan nan nan nan nan nan nan nan nan nan nan nan nan nan nan nan nan nan nan nan nan nan nan nan nan nan nan nan nan nan nan nan 0 nan nan nan nan nan nan nan nan nan nan nan nan nan 4 15 66 80 80 91 73 71 71 52 26 1 1 nan nan nan nan nan nan nan nan nan nan nan nan 2 nan nan nan nan nan nan
nan nan nan nan nan nan nan nan nan nan nan nan nan nan nan nan nan nan nan nan nan nan nan nan nan nan nan nan nan nan nan nan nan nan nan nan nan nan nan nan nan nan nan nan nan nan nan nan nan nan nan nan nan nan nan nan nan 0 0 0 nan nan nan nan nan nan nan nan nan nan nan nan nan 10 39 39 67 85 83 83 79 45 5 5 nan nan nan nan nan nan nan nan 2 6 nan nan 0 0 nan nan nan nan nan
nan nan nan nan nan nan nan nan nan nan nan nan nan nan nan nan nan nan nan nan nan nan nan nan nan nan nan nan nan nan nan nan nan nan nan nan nan nan nan nan nan nan nan nan nan nan nan nan nan nan nan nan nan nan nan nan nan nan 4 4 nan nan nan nan nan nan nan nan nan nan nan nan nan nan nan nan 14 38 39 39 40 26 15 15 9 7 7 0 nan nan nan nan 0 nan nan nan nan nan nan nan nan nan nan
nan nan nan nan nan nan nan nan nan nan nan nan nan nan nan nan nan nan nan nan nan nan nan nan nan nan nan nan nan nan nan nan nan nan nan nan nan nan nan nan nan nan nan nan nan nan nan nan nan nan nan nan nan nan nan nan nan nan 3 3 1 nan nan nan nan nan nan nan nan nan nan nan nan nan nan nan nan 4 13 13 19 16 5 5 3 11 11 8 nan nan nan nan nan nan nan nan nan nan nan nan nan nan nan
nan nan nan nan nan nan nan nan nan nan nan nan nan nan nan nan nan nan nan nan nan nan nan nan nan nan nan nan nan nan nan nan nan nan nan nan nan nan nan nan nan nan nan nan nan nan nan nan nan nan nan nan nan nan nan nan nan nan nan nan 2 nan nan nan nan nan nan 0 nan nan nan nan nan nan nan nan nan nan 3 3 12 8 nan nan 1 0 0 1 nan nan nan nan nan nan nan nan nan nan nan nan nan nan nan
nan nan nan nan nan nan nan nan nan nan nan nan nan nan nan nan nan nan nan nan nan nan nan nan nan nan nan nan nan nan nan nan nan nan nan nan nan nan nan nan nan nan nan nan nan nan nan nan nan nan nan nan nan nan nan nan nan nan nan nan nan nan nan nan nan nan nan nan nan nan nan nan nan nan nan nan nan nan nan nan nan 1 15 15 5 4 4 nan nan nan nan nan nan nan nan nan nan nan nan nan nan nan nan
nan nan nan nan nan nan nan nan nan nan nan nan nan nan nan nan nan nan nan nan nan nan nan nan nan nan nan nan nan nan nan nan nan nan nan nan nan nan nan nan nan nan nan nan nan nan nan nan nan nan nan nan nan nan nan nan nan nan nan nan nan nan nan nan nan nan nan nan nan nan nan nan nan nan nan nan nan nan nan nan nan nan 0 0 16 6 6 nan nan nan nan nan nan nan nan nan nan nan nan nan nan nan nan
nan nan nan nan nan nan nan nan nan nan nan nan nan nan nan nan nan nan nan nan nan nan nan nan nan nan nan nan nan nan nan nan nan nan nan nan nan nan nan nan nan nan nan nan nan nan nan nan nan nan nan nan nan nan nan nan nan nan nan nan nan nan nan nan nan nan nan nan nan nan nan 0 3 7 nan nan nan nan nan nan nan nan nan nan 1 19 19 8 nan nan nan nan nan nan nan nan nan nan nan nan nan nan nan
nan nan nan nan nan nan nan nan nan nan nan nan nan nan nan nan nan nan nan nan nan nan nan nan nan nan nan nan nan nan nan nan nan nan nan nan nan nan nan nan nan nan nan nan nan nan nan nan nan nan nan nan nan nan nan nan nan nan nan nan nan nan nan nan nan nan nan nan nan nan nan nan 3 13 6 6 nan nan nan nan nan nan nan nan nan nan nan 8 8 5 5 nan nan nan nan nan nan nan nan nan nan nan nan
nan nan nan nan nan nan nan nan nan nan nan nan nan nan nan nan nan nan nan nan nan nan nan nan nan nan nan nan nan nan nan nan nan nan nan nan nan nan nan nan nan nan nan nan nan nan nan nan nan nan nan nan nan nan nan nan nan nan nan nan nan nan nan nan nan nan nan nan nan nan nan nan nan 7 9 9 4 3 3 3 2 2 1 1 3 0 0 2 12 14 14 4 nan nan nan nan nan nan nan nan nan nan nan
nan nan nan nan nan nan nan nan nan nan nan nan nan nan nan nan nan nan nan nan nan nan nan nan nan nan nan nan nan nan nan nan nan nan nan nan nan nan nan nan nan nan nan nan nan nan nan nan nan nan nan nan nan nan nan nan nan nan nan nan nan nan nan nan nan nan nan nan nan nan nan nan nan nan 3 3 8 9 7 7 6 5 5 5 4 8 8 4 8 17 17 17 9 8 nan nan nan nan nan nan nan nan nan
nan nan nan nan nan nan nan nan nan nan nan nan nan nan nan nan nan nan nan nan nan nan nan nan nan nan nan nan nan nan nan nan nan nan nan nan nan nan nan nan nan nan nan nan nan nan nan nan nan nan nan nan nan nan nan nan nan nan nan nan nan nan nan nan nan nan nan nan nan nan nan nan nan nan nan nan 3 9 6 6 2 2 4 4 4 8 8 13 nan 8 8 12 10 10 3 3 nan nan nan nan nan nan nan
nan nan nan nan nan nan nan nan nan nan nan nan nan nan nan nan nan nan nan nan nan nan nan nan nan nan nan nan nan nan nan nan nan nan nan nan nan nan nan nan nan nan nan nan nan nan nan nan nan nan nan nan nan nan nan nan nan nan nan nan nan nan nan nan nan nan nan nan nan nan nan nan nan nan nan nan nan 1 0 0 0 0 0 0 2 6 6 8 1 1 1 nan 8 16 17 17 14 7 nan nan nan nan nan
nan nan nan nan nan nan nan nan nan nan nan nan nan nan nan nan nan nan nan nan nan nan nan nan nan nan nan nan nan nan nan nan nan nan nan nan nan nan nan nan nan nan nan nan nan nan nan nan nan nan nan nan nan nan nan nan nan nan nan nan nan nan nan nan nan nan nan nan nan nan nan nan nan nan nan nan nan nan nan nan nan 1 0 0 nan 3 3 5 0 2 2 nan nan 6 13 13 19 19 12 12 nan nan nan
nan nan nan nan nan nan nan nan nan nan nan nan nan nan nan nan nan nan nan nan nan nan nan nan nan nan nan nan nan nan nan nan nan nan nan nan nan nan nan nan nan nan nan nan nan nan nan nan nan nan nan nan nan nan nan nan nan nan nan nan nan nan nan nan nan nan nan nan nan nan nan nan nan nan nan nan nan nan nan nan nan nan nan nan 1 1 1 2 1 3 3 3 1 1 4 4 19 30 29 29 9 nan nan
nan nan nan nan nan nan nan nan nan nan nan nan nan nan nan nan nan nan nan nan nan nan nan nan nan nan nan nan nan nan nan nan nan nan nan nan nan nan nan nan nan nan nan nan nan nan nan nan nan nan nan nan nan nan nan nan nan nan nan nan nan nan nan nan nan nan nan nan nan nan nan nan nan nan nan nan nan nan nan nan nan nan nan nan 1 3 3 3 0 1 1 2 1 nan 1 1 7 20 32 32 29 2 nan
nan nan nan nan nan nan nan nan nan nan nan nan nan nan nan nan nan nan nan nan nan nan nan nan nan nan nan nan nan nan nan nan nan nan nan nan nan nan nan nan nan nan nan nan nan nan nan nan nan nan nan nan nan nan nan nan nan nan nan nan nan nan nan nan nan nan nan nan nan nan nan nan nan nan nan nan nan nan nan nan nan nan nan nan nan 3 3 5 5 4 4 4 2 1 0 0 1 7 28 28 51 26 nan
nan nan nan nan nan nan nan nan nan nan nan nan nan nan nan nan nan nan nan nan nan nan nan nan nan nan nan nan nan nan nan nan nan nan nan nan nan nan nan nan nan nan nan nan nan nan nan nan nan nan nan nan nan nan nan nan nan nan nan nan nan nan nan nan nan nan nan nan nan nan nan nan nan nan nan nan nan nan nan nan nan nan nan nan nan nan nan 3 13 14 14 7 5 5 1 1 0 1 11 11 25 33 10
nan nan nan nan nan nan nan nan nan nan nan nan nan nan nan nan nan nan nan nan nan nan nan nan nan nan nan nan nan nan nan nan nan nan nan nan nan nan nan nan nan nan nan nan nan nan nan nan nan nan nan nan nan nan nan nan nan nan nan nan nan nan nan nan nan nan nan nan nan nan nan nan nan nan nan nan nan nan nan nan nan nan nan nan nan nan nan nan 5 16 16 17 13 11 4 4 1 2 3 3 3 7 15
nan nan nan nan nan nan nan nan nan nan nan nan nan nan nan nan nan nan nan nan nan nan nan nan nan nan nan nan nan nan nan nan nan nan nan nan nan nan nan nan nan nan nan nan nan nan nan nan nan nan nan nan nan nan nan nan nan nan nan nan nan nan nan nan nan nan nan nan nan nan nan nan nan nan nan nan nan nan nan nan nan nan nan nan nan nan nan nan nan 8 8 25 28 23 15 15 9 2 2 2 2 1 4
nan nan nan nan nan nan nan nan nan nan nan nan nan nan nan nan nan nan nan nan nan nan nan nan nan nan nan nan nan nan nan nan nan nan nan nan nan nan nan nan nan nan nan nan nan nan nan nan nan nan nan nan nan nan nan nan nan nan nan nan nan nan nan nan nan nan nan nan nan nan nan nan nan nan nan nan nan nan nan nan nan nan nan nan nan nan nan nan nan nan nan 8 23 29 35 35 28 16 9 9 9 4 4
nan nan nan nan nan nan nan nan nan nan nan nan nan nan nan nan nan nan nan nan nan nan nan nan nan nan nan nan nan nan nan nan nan nan nan nan nan nan nan nan nan nan nan nan nan nan nan nan nan nan nan nan nan nan nan nan nan nan nan nan nan nan nan nan nan nan nan nan nan nan nan nan nan nan nan nan nan nan nan nan nan nan nan nan nan nan nan nan nan nan nan nan nan 1 10 10 26 40 40 40 34 26 18
nan nan nan nan nan nan nan nan nan nan nan nan nan nan nan nan nan nan nan nan nan nan nan nan nan nan nan nan nan nan nan nan nan nan nan nan nan nan nan nan nan nan nan nan nan nan nan nan nan nan nan nan nan nan nan nan nan nan nan nan nan nan nan nan nan nan nan nan nan nan nan nan nan nan nan nan nan nan nan nan nan nan nan nan nan nan nan nan nan nan nan nan nan nan 3 3 7 15 23 23 34 38 27
nan nan nan nan nan nan nan nan nan nan nan nan nan nan nan nan nan nan nan nan nan nan nan nan nan nan nan nan nan nan nan nan nan nan nan nan nan nan nan nan nan nan nan nan nan nan nan nan nan nan nan nan nan nan nan nan nan nan nan nan nan nan nan nan nan nan nan nan nan nan nan nan nan nan nan nan nan nan nan nan nan nan nan nan nan nan nan nan nan nan nan nan nan nan nan nan nan 3 8 8 23 43 37
nan nan nan nan nan nan nan nan nan nan nan nan nan nan nan nan nan nan nan nan nan nan nan nan nan nan nan nan nan nan nan nan nan nan nan nan nan nan nan nan nan nan nan nan nan nan nan nan nan nan nan nan nan nan nan nan nan nan nan nan nan nan nan nan nan nan nan nan nan nan nan nan nan nan nan nan nan nan nan nan nan nan nan nan nan nan nan nan nan nan nan nan nan nan nan nan nan 1 6 6 13 26 44
nan nan nan nan nan nan nan nan nan nan nan nan nan nan nan nan nan nan nan nan nan nan nan nan nan nan nan nan nan nan nan nan nan nan nan nan nan nan nan nan nan nan nan nan nan nan nan nan nan nan nan nan nan nan nan nan nan nan nan nan nan nan nan nan nan nan nan nan nan nan nan nan nan nan nan nan nan nan nan nan nan nan nan nan nan nan nan nan nan nan nan nan nan nan nan nan nan 0 3 3 8 18 41